Preview of NWS' New Version of Forecast
This preview is not operational and should not be used for support decisions.

Regional Weather Roundup (RWR)

Issued by National Weather Service (NWS)

                            
000
ASUS43 KMKX 200421
RWRWI 

WISCONSIN REGIONAL WEATHER ROUNDUP
NATIONAL WEATHER SERVICE MILWAUKEE/SULLIVAN WI
1100 PM CDT MON AUG 19 2019

NOTE: "FAIR" INDICATES FEW OR NO CLOUDS BELOW 12,000 FEET WITH NO
SIGNIFICANT WEATHER AND/OR OBSTRUCTIONS TO VISIBILITY.

WIZ001-002-006>008-014>016-023>028-200500-
NORTHWEST WISCONSIN
  
CITY           SKY/WX    TMP DP  RH WIND       PRES   REMARKS
SUPERIOR ARPT  FAIR      64  57  78 CALM      29.96R                  
ASHLAND        FAIR      66  56  70 SW9       29.98R                  
HAYWARD        FAIR      58  54  86 CALM      30.02R                  
SIREN          FAIR      62  57  84 S5        30.01S                  
CUMBERLAND     FAIR      57  55  94 CALM      30.03R                  
RICE LAKE      FAIR      60  44  56 CALM      30.04R                  
CHETEK         FAIR      59  58  98 CALM      30.03                   
LADYSMITH      FAIR      62  57  86 CALM      30.05S                  
EAU CLAIRE     FAIR      60  57  89 CALM      30.02R                  
MENOMONIE      FAIR      58  57  94 E3        30.03S                  
NEW RICHMOND   FAIR      63  58  83 SE3       30.02R                  
OSCEOLA        FAIR      63  60  89 CALM      30.04R                  
$$
 
WIZ003>005-009-010-017-018-200500-
NORTH CENTRAL WISCONSIN
  
CITY           SKY/WX    TMP DP  RH WIND       PRES   REMARKS
MANITOWISH WTR FAIR      55  55 100 CALM      30.04R                  
ARBOR VITAE    FAIR      59  56  89 CALM      30.04R                  
WOODRUFF       FAIR      59  56  89 CALM      30.04R                  
RHINELANDER    FAIR      58  54  86 W6        30.05R                  
EAGLE RIVER    FAIR      52  52 100 CALM      30.04R                  
LAND O LAKES   FAIR      54  51  87 CALM      30.05R                  
PHILLIPS       FAIR      57  56  97 SW3       30.04S                  
TOMAHAWK       FAIR      51  50  96 CALM      30.05R                  
MEDFORD        FAIR      53  53  97 CALM      30.05S                  
MERRILL        FAIR      53  53 100 CALM      30.05S                  
$$
 
WIZ029-030-035-036-043>047-200500-
CENTRAL WISCONSIN
  
CITY           SKY/WX    TMP DP  RH WIND       PRES   REMARKS
WAUSAU         FAIR      59  56  89 CALM      30.02S                  
MOSINEE        FAIR      55  55 100 CALM      30.05S                  
MARSHFIELD     FAIR      59  56  89 CALM      30.04R                  
STEVENS POINT  FAIR      54  54 100 CALM      30.04S                  
WAUPACA        FAIR      59  58  96 CALM      30.03S                  
WAUTOMA        FAIR      59  58  96 CALM      30.04R                  
WISC RAPIDS    FAIR      59  57  93 CALM      30.04R                  
CAMP DOUGLAS   FAIR      55  55 100 CALM      30.04R FOG              
$$
 
WIZ011>013-019>022-031-037>040-048>050-200500-
NORTHEAST WISCONSIN
  
CITY           SKY/WX    TMP DP  RH WIND       PRES   REMARKS
ANTIGO         FAIR      55  53  95 CALM      30.05S                  
SHAWANO        FAIR      59  57  94 CALM      30.02S                  
OCONTO         FAIR      56  54  94 CALM      30.01S                  
STURGEON BAY   FAIR      64  57  78 S7        30.02S                  
GREEN BAY      FAIR      63  60  90 CALM      30.02S                  
MANITOWOC      FAIR      60  59  96 SE3       30.03S                  
APPLETON       FAIR      61  50  67 W5        30.02R                  
CLINTONVILLE   FAIR      57  53  86 CALM      30.03R                  
OSHKOSH        FAIR      61  57  87 S3        30.02R                  
$$
 
WIZ032>034-041-042-053>061-200500-
SOUTHWEST WISCONSIN
  
CITY           SKY/WX    TMP DP  RH WIND       PRES   REMARKS
LA CROSSE      FAIR      66  60  81 SE3       30.02R                  
SPARTA         FAIR      54  53  97 CALM      30.05R                  
VIROQUA        FAIR      66  61  84 CALM      30.05S                  
BOSCOBEL       FAIR      61  59  93 CALM      30.03R                  
PRAIRIE DU CHI FAIR      63  61  91 E5        30.02R                  
PLATTEVILLE    FAIR      68  65  92 CALM      30.04S                  
$$

WIZ056-057-062-063-064-067-068-200500-
SOUTH CENTRAL WISCONSIN
  
CITY           SKY/WX    TMP DP  RH WIND       PRES   REMARKS
REEDSBURG      FAIR      61  61 100 CALM      30.04R                  
BARABOO/DELLS  FAIR      62  60  93 CALM      30.05R                  
LONE ROCK      FAIR      62  61  96 CALM      30.03R                  
MINERAL POINT    N/A     70  64  83 CALM      30.04S                  
MADISON        FAIR      63  60  90 CALM      30.03R                  
MIDDLETON      FAIR      64  26  24 CALM      30.05R                  
WATERTOWN      FAIR      64  64 100 CALM      30.03S                  
MONROE         FAIR      72  63  72 CALM      30.04S                  
JANESVILLE     FAIR      70  70 100 CALM      30.03R                  
$$
 
WIZ051-052-058>065-066-070>072-200500-
SOUTHEAST WISCONSIN
  
CITY           SKY/WX    TMP DP  RH WIND       PRES   REMARKS
MILWAUKEE      FAIR      74  67  78 SW3       30.02S                  
WAUKESHA       FAIR      64  63  94 CALM      30.04S                  
MILWAUKEE/TIMM FAIR      68  61  77 CALM      30.04S                  
RACINE         MOCLDY    72  68  87 CALM      30.04R                  
KENOSHA        FAIR      74  71  91 S3        30.03S                  
FOND DU LAC    FAIR      62  58  86 S5        30.03R                  
SHEBOYGAN      FAIR      61  59  93 CALM      30.03R                  
WEST BEND        N/A     63  63 100 CALM      30.04R FOG              
JUNEAU         FAIR      64  60  88 CALM      30.05R                  
$$

LSZ147-162-200500-
LAKE SUPERIOR
  
STATION/POSITION TIME  TEMP    WIND        PRES    WAVE
                       AIR SEA DIR/SP/G            HT/PER
                 (UTC) (F)     (DEG/KT/KT) (MB)    (FT/S)
W MID LAKE BUOY  0350   67 63  230/ 16/ 17 1012.5R   2/ 4
DEVILS ISLAND    0400   71     220/ 14/ 18 1013.5R
SAXON HARBOR     0340   69     200/  9/ 13 1014.2R
$$
 
LMZ867-665-643>646-200500-
LAKE MICHIGAN
  
STATION/POSITION TIME  TEMP    WIND        PRES    WAVE
                       AIR SEA DIR/SP/G            HT/PER
                 (UTC) (F)     (DEG/KT/KT) (MB)    (FT/S)
S GREEN BAY BUOY 0330   76 71  180/  6/  8 1016.3R
N MID LAKE BUOY  0400   70 70  200/ 12/ 14 1016.0
NORTHPORT PIER   0340   65     150/  1/  3 1015.6S
KEWAUNEE LAKESHO 0336   65      CALM  /  1 1016.0R
SHEBOYGAN LAKESH 0400   69     210/  2/  2 1017.0R
PORT WASHINGTON  0330   71      CALM  /  2 1017.6S
S MID LAKE BUOY  0400   74 75  120/  6/  8 1016.9
KENOSHA   LAKESH 0400   74     180/  5/  6 1016.6
$$

TC  - TEMPERATURE IN CELSIUS
VSB - VISIBILITY IN STATUTE MILES
WCI - WIND CHILL INDEX
HX  - HEAT INDEX